* Astronomy

Members Login
Username 
 
Password 
    Remember Me  
Post Info TOPIC: Asteroid 2011 CD50


L

Posts: 131433
Date:
Asteroid 2011 CD50
Permalink  
 


Orbital elements:
2011 CD50 Earth MOID = 0.0716 AU
Epoch 2011 Feb. 8.0 TT = JDT 2455600.5 MPC
M 70.33570 (2000.0) P Q
n 0.85234937 Peri. 72.39793 +0.82166274 -0.54279191
a 1.1016855 Node 319.98290 +0.36383911 +0.73436548
e 0.3044179 Incl. 15.69231 +0.43873846 +0.40753439
P 1.16 H 25.1 G 0.15 U 9

MPEC 2011 - C82


__________________
Page 1 of 1  sorted by
 
Quick Reply

Please log in to post quick replies.



Create your own FREE Forum
Report Abuse
Powered by ActiveBoard